Gardner, KS

5:04 AM CDT on October 01, 2016 (GMT -0500)
New Century Aircenter

Weather History for KIXD - October, 2013

Change the Weather History Date:

Wednesday, October 16, 2013

  Actual Average Record
Temperature  
Mean Temperature 49 °F -  
Max Temperature 57 °F 65 °F 82 °F (2010)
Min Temperature 41 °F 43 °F 32 °F (2002)
Degree Days  
Heating Degree Days 16    
Moisture  
Dew Point 38 °F    
Average Humidity 69    
Maximum Humidity 82    
Minimum Humidity 49    
Precipitation  
Precipitation 0.00 in - - ()
Sea Level Pressure  
Sea Level Pressure 30.07 in    
Wind  
Wind Speed 7 mph (WNW)    
Max Wind Speed 15 mph    
Max Gust Speed 16 mph    
Visibility 10 miles    
Events      
Averages and records for this station are not official NWS values.
T = Trace of Precipitation, MM = Missing Value Source: NWS Daily Summary

Daily Weather History Graph

Daily Weather History Graph

Search for Another Location

Airport or City:

Trip Planner

Search our weather history database for the weather conditions in past years. The results will help you decide how hot, cold, wet, or windy it might be!

Date:

Astronomy

Oct. 16, 2013 Rise Set
Actual Time 7:30 AM CDT 6:39 PM CDT
Civil Twilight 7:03 AM CDT 7:06 PM CDT
Nautical Twilight 6:32 AM CDT 7:37 PM CDT
Astronomical Twilight 6:01 AM CDT 8:07 PM CDT
Moon 5:18 PM CDT (10/16) 5:00 AM CDT (10/16)
Length of Visible Light 12h 02m
Length of Day
11h 09m
Waxing Gibbous, 94% of the Moon is Illuminated
Oct 16
Waxing Gibbous
Oct 18
Full
Oct 26
Last Quarter
Nov 3
New
Nov 9
First Quarter

Hourly Weather History & Observations

Time (CDT) Temp. Windchill Dew Point Humidity Pressure Visibility Wind Dir Wind Speed Gust Speed Precip Events Conditions
12:53 AM 44.1 °F 39.5 °F 37.0 °F 76% 30.09 in 10.0 mi NW 8.1 mph - N/A   Partly Cloudy
1:53 AM 43.0 °F 38.8 °F 36.0 °F 76% 30.10 in 10.0 mi WNW 6.9 mph - N/A   Partly Cloudy
2:53 AM 41.0 °F 38.0 °F 36.0 °F 82% 30.10 in 10.0 mi West 4.6 mph - N/A   Clear
3:53 AM 43.0 °F 37.7 °F 37.0 °F 80% 30.08 in 10.0 mi WNW 9.2 mph - N/A   Overcast
4:40 AM 42.8 °F 39.3 °F 35.6 °F 76% 30.08 in 10.0 mi WNW 5.8 mph - N/A   Scattered Clouds
4:53 AM 41.0 °F 37.1 °F 36.0 °F 82% 30.08 in 10.0 mi WNW 5.8 mph - N/A   Clear
5:45 AM 44.6 °F 39.7 °F 37.4 °F 76% 30.08 in 10.0 mi NW 9.2 mph - N/A   Overcast
5:53 AM 44.1 °F 38.6 °F 37.0 °F 76% 30.09 in 10.0 mi NW 10.4 mph - N/A   Overcast
6:35 AM 42.8 °F 38.0 °F 37.4 °F 81% 30.09 in 10.0 mi NW 8.1 mph - N/A   Scattered Clouds
6:53 AM 42.1 °F 39.2 °F 36.0 °F 79% 30.09 in 10.0 mi WNW 4.6 mph - N/A   Clear
7:37 AM 42.8 °F 39.3 °F 37.4 °F 81% 30.09 in 10.0 mi West 5.8 mph - N/A   Mostly Cloudy
7:53 AM 42.1 °F 39.2 °F 37.0 °F 82% 30.10 in 10.0 mi WNW 4.6 mph - N/A   Overcast
8:53 AM 43.0 °F 38.8 °F 37.9 °F 82% 30.12 in 10.0 mi West 6.9 mph - N/A   Scattered Clouds
9:46 AM 48.2 °F - 37.4 °F 66% 30.13 in 10.0 mi NW 15.0 mph - N/A   Mostly Cloudy
9:53 AM 46.9 °F - 37.9 °F 71% 30.14 in 10.0 mi NW 12.7 mph - N/A   Mostly Cloudy
10:53 AM 48.9 °F - 37.0 °F 64% 30.12 in 10.0 mi NW 10.4 mph - N/A   Partly Cloudy
11:53 AM 52.0 °F - 37.9 °F 59% 30.11 in 10.0 mi West 6.9 mph 16.1 mph N/A   Partly Cloudy
12:53 PM 54.0 °F - 39.0 °F 57% 30.09 in 10.0 mi NW 6.9 mph - N/A   Clear
1:53 PM 57.0 °F - 39.0 °F 51% 30.06 in 10.0 mi WNW 9.2 mph - N/A   Clear
2:53 PM 57.9 °F - 39.0 °F 49% 30.03 in 10.0 mi NW 11.5 mph 16.1 mph N/A   Clear
3:53 PM 57.9 °F - 39.0 °F 49% 30.01 in 10.0 mi NNW 5.8 mph - N/A   Clear
4:53 PM 55.9 °F - 39.0 °F 53% 30.00 in 10.0 mi NW 4.6 mph - N/A   Clear
5:53 PM 55.0 °F - 39.0 °F 55% 30.01 in 10.0 mi West 5.8 mph - N/A   Mostly Cloudy
6:53 PM 54.0 °F - 37.9 °F 55% 30.03 in 10.0 mi WSW 4.6 mph - N/A   Overcast
7:53 PM 54.0 °F - 39.0 °F 57% 30.03 in 10.0 mi Calm Calm - N/A   Overcast
8:53 PM 51.1 °F - 42.1 °F 71% 30.03 in 10.0 mi SSW 4.6 mph - N/A   Overcast
9:53 PM 51.1 °F - 43.0 °F 74% 30.03 in 10.0 mi SSW 4.6 mph - N/A   Overcast
10:53 PM 51.1 °F - 41.0 °F 68% 30.02 in 8.0 mi WSW 6.9 mph - N/A   Overcast
11:53 PM 48.9 °F - 43.0 °F 80% 30.02 in 9.0 mi SW 5.8 mph - 0.00 in   Overcast